TOM47A EGPH-LECH

Flight info

Callsign TOM47A
Flight time N/A
Altitude 35000
Route TLA DCT MONTY/N0450F340 DCT AXCIS DCT PEPZE/N0451F350 DCT EMWIP DCT SKERY DCT SKESO DCT KORER UN26 UVUDO UN862 UTISO DCT LULUT DCT PERDU N862 MLA N860 RIMES
Aircraft B38M/M-SADE2E3GIJ4J7RWZ/LB1D1

Departure

Time N/A
Airport Edinburgh Airport (EGPH)

Arrival

Time 2026-04-23 20:26
Airport Castellón-Costa Azahar Airport (LECH)
Time Latitude Longitude Altitude Speed Heading
2026-04-23 18:20 54.02243 -3.24849 29805 ft 452 kts 178°
2026-04-23 18:21 53.99114 -3.24635 29950 ft 453 kts 178°
2026-04-23 18:21 53.95956 -3.24420 30092 ft 454 kts 178°
2026-04-23 18:21 53.92794 -3.24205 30225 ft 455 kts 178°
2026-04-23 18:21 53.89644 -3.23991 30364 ft 456 kts 178°
2026-04-23 18:22 53.86507 -3.23779 30504 ft 457 kts 178°
2026-04-23 18:22 53.83358 -3.23565 30674 ft 456 kts 178°
2026-04-23 18:22 53.80155 -3.23349 30850 ft 456 kts 178°
2026-04-23 18:22 53.77004 -3.23137 31024 ft 456 kts 178°
2026-04-23 18:23 53.74922 -3.22997 31140 ft 456 kts 178°
2026-04-23 18:23 53.67544 -3.22501 31544 ft 455 kts 178°
2026-04-23 18:24 53.61261 -3.22081 31877 ft 454 kts 178°
2026-04-23 18:24 53.58104 -3.21870 32041 ft 454 kts 178°
2026-04-23 18:24 53.55004 -3.21664 32200 ft 453 kts 178°
2026-04-23 18:25 53.48733 -3.21246 32511 ft 453 kts 178°
2026-04-23 18:25 53.45586 -3.21038 32665 ft 452 kts 178°
2026-04-23 18:25 53.42434 -3.20829 32815 ft 452 kts 178°
2026-04-23 18:25 53.39297 -3.20621 32962 ft 452 kts 178°
2026-04-23 18:26 53.36167 -3.20415 33109 ft 452 kts 178°
2026-04-23 18:26 53.33073 -3.20210 33247 ft 451 kts 178°
2026-04-23 18:26 53.29921 -3.20003 33390 ft 451 kts 178°
2026-04-23 18:26 53.26805 -3.19798 33528 ft 451 kts 178°
2026-04-23 18:27 53.23720 -3.19595 33659 ft 450 kts 178°
2026-04-23 18:27 53.20598 -3.19390 33794 ft 450 kts 178°
2026-04-23 18:27 53.17481 -3.19186 33924 ft 450 kts 178°
2026-04-23 18:27 53.14368 -3.18983 34051 ft 450 kts 178°
2026-04-23 18:28 53.11243 -3.18779 34183 ft 449 kts 178°
2026-04-23 18:28 53.08141 -3.18577 34313 ft 449 kts 178°
2026-04-23 18:28 53.05035 -3.18375 34442 ft 449 kts 178°
2026-04-23 18:28 53.01905 -3.18171 34570 ft 449 kts 178°
2026-04-23 18:29 52.98808 -3.18021 34686 ft 448 kts 181°
2026-04-23 18:29 52.95696 -3.18244 34810 ft 448 kts 184°
2026-04-23 18:29 52.92603 -3.18725 34935 ft 447 kts 187°
2026-04-23 18:30 52.86495 -3.20616 35000 ft 450 kts 194°
2026-04-23 18:30 52.80521 -3.23411 34999 ft 449 kts 197°
2026-04-23 18:31 52.74593 -3.26592 35000 ft 448 kts 199°
2026-04-23 18:31 52.68660 -3.29555 35001 ft 448 kts 192°
2026-04-23 18:32 52.62580 -3.31620 34999 ft 449 kts 191°
2026-04-23 18:32 52.56433 -3.32775 35000 ft 448 kts 183°
2026-04-23 18:33 52.50200 -3.32957 34999 ft 448 kts 180°
2026-04-23 18:33 52.43985 -3.32979 34999 ft 448 kts 180°
2026-04-23 18:34 52.37767 -3.32977 34999 ft 448 kts 180°
2026-04-23 18:34 52.31562 -3.32962 35000 ft 448 kts 180°
2026-04-23 18:35 52.25344 -3.32940 35000 ft 448 kts 180°
2026-04-23 18:35 52.19162 -3.32914 35000 ft 448 kts 180°
2026-04-23 18:36 52.12934 -3.32886 35000 ft 448 kts 180°
2026-04-23 18:36 52.06704 -3.32857 35000 ft 448 kts 180°
2026-04-23 18:37 52.00502 -3.32827 35000 ft 448 kts 180°
2026-04-23 18:37 51.94307 -3.32797 35000 ft 448 kts 180°
2026-04-23 18:38 51.88092 -3.32767 35000 ft 448 kts 180°
2026-04-23 18:38 51.81872 -3.32737 35000 ft 448 kts 180°
2026-04-23 18:39 51.75667 -3.32707 34999 ft 448 kts 180°
2026-04-23 18:39 51.69442 -3.32677 35000 ft 448 kts 180°
2026-04-23 18:40 51.63242 -3.32647 35000 ft 448 kts 180°
2026-04-23 18:40 51.57006 -3.32617 35000 ft 448 kts 180°
2026-04-23 18:41 51.50818 -3.32587 35000 ft 448 kts 180°
2026-04-23 18:41 51.44607 -3.32558 35000 ft 448 kts 180°
2026-04-23 18:42 51.38381 -3.32528 35000 ft 448 kts 180°
2026-04-23 18:42 51.32146 -3.32498 34999 ft 448 kts 180°
2026-04-23 18:43 51.25948 -3.32469 35000 ft 448 kts 180°
2026-04-23 18:43 51.19741 -3.32440 35000 ft 448 kts 180°
2026-04-23 18:44 51.13545 -3.32410 35000 ft 448 kts 180°
2026-04-23 18:44 51.07333 -3.32381 35000 ft 448 kts 180°
2026-04-23 18:45 51.01105 -3.32352 35000 ft 448 kts 180°
2026-04-23 18:45 50.94910 -3.32323 35000 ft 448 kts 180°
2026-04-23 18:46 50.88660 -3.32294 35000 ft 448 kts 180°
2026-04-23 18:46 50.82447 -3.32265 35000 ft 448 kts 180°
2026-04-23 18:47 50.76268 -3.32236 34999 ft 448 kts 180°
2026-04-23 18:47 50.70058 -3.32207 35000 ft 448 kts 180°
2026-04-23 18:48 50.63808 -3.32179 35000 ft 448 kts 180°
2026-04-23 18:48 50.57614 -3.32150 35000 ft 448 kts 180°
2026-04-23 18:49 50.51393 -3.32121 35000 ft 448 kts 180°
2026-04-23 18:49 50.45253 -3.32093 35000 ft 448 kts 180°
2026-04-23 18:50 50.40100 -3.32070 35000 ft 448 kts 180°
2026-04-23 18:50 50.32836 -3.32036 35000 ft 448 kts 180°
2026-04-23 18:51 50.26637 -3.32008 35000 ft 448 kts 180°
2026-04-23 18:51 50.20408 -3.31980 35000 ft 448 kts 180°
2026-04-23 18:52 50.14194 -3.31952 35000 ft 448 kts 180°
2026-04-23 18:52 50.08006 -3.31521 34993 ft 448 kts 168°
2026-04-23 18:52 50.05074 -3.30060 35000 ft 448 kts 155°
2026-04-23 18:53 50.03239 -3.28499 35002 ft 448 kts 146°
2026-04-23 18:53 50.00155 -3.24244 35004 ft 448 kts 131°
2026-04-23 18:53 49.98097 -3.20671 35001 ft 449 kts 134°
2026-04-23 18:54 49.93422 -3.14291 34999 ft 449 kts 144°
2026-04-23 18:54 49.88213 -3.09029 34997 ft 448 kts 152°
2026-04-23 18:55 49.82502 -3.05258 35000 ft 448 kts 162°
2026-04-23 18:55 49.77523 -3.03096 35000 ft 448 kts 166°
2026-04-23 18:56 49.71476 -3.01029 34999 ft 448 kts 168°
2026-04-23 18:56 49.64329 -2.98914 34999 ft 448 kts 169°
2026-04-23 18:57 49.58209 -2.97230 35000 ft 448 kts 170°
2026-04-23 18:57 49.52105 -2.95603 34999 ft 448 kts 170°
2026-04-23 18:58 49.45960 -2.93993 35000 ft 448 kts 170°
2026-04-23 18:58 49.39869 -2.92414 34999 ft 448 kts 170°
2026-04-23 18:59 49.33723 -2.90831 35000 ft 448 kts 170°
2026-04-23 18:59 49.27574 -2.89256 34999 ft 448 kts 170°
2026-04-23 19:00 49.21480 -2.87701 35000 ft 448 kts 170°
2026-04-23 19:00 49.15313 -2.86133 35000 ft 448 kts 170°
2026-04-23 19:01 49.09202 -2.84584 35000 ft 448 kts 170°
2026-04-23 19:01 49.03060 -2.83031 35000 ft 448 kts 170°
2026-04-23 19:02 48.97987 -2.81752 35000 ft 448 kts 170°
2026-04-23 19:02 48.90814 -2.79947 35000 ft 448 kts 170°
2026-04-23 19:03 48.85458 -2.78604 34999 ft 448 kts 170°
2026-04-23 19:03 48.79785 -2.77183 34999 ft 448 kts 170°
2026-04-23 19:04 48.73674 -2.75657 34999 ft 448 kts 170°
2026-04-23 19:04 48.67546 -2.74130 34999 ft 448 kts 170°
2026-04-23 19:05 48.61390 -2.72601 35000 ft 448 kts 170°
2026-04-23 19:05 48.55259 -2.71081 35000 ft 448 kts 170°
2026-04-23 19:06 48.49122 -2.69563 35000 ft 448 kts 170°
2026-04-23 19:06 48.45339 -2.68629 34999 ft 448 kts 170°
2026-04-23 19:07 48.39192 -2.67115 35000 ft 448 kts 170°
2026-04-23 19:07 48.33047 -2.65606 35000 ft 448 kts 170°
2026-04-23 19:08 48.26906 -2.64100 35000 ft 448 kts 170°
2026-04-23 19:08 48.20781 -2.62603 35000 ft 448 kts 170°
2026-04-23 19:09 48.14650 -2.61108 35000 ft 448 kts 170°
2026-04-23 19:09 48.08510 -2.59613 35000 ft 448 kts 170°
2026-04-23 19:10 48.02406 -2.58132 35000 ft 448 kts 170°
2026-04-23 19:10 47.96272 -2.56647 35000 ft 448 kts 170°
2026-04-23 19:11 47.90136 -2.55164 35000 ft 448 kts 170°
2026-04-23 19:11 47.83984 -2.53682 34999 ft 448 kts 170°
2026-04-23 19:12 47.78883 -2.52455 34999 ft 448 kts 170°
2026-04-23 19:12 47.71724 -2.50680 34999 ft 448 kts 168°
2026-04-23 19:13 47.65717 -2.48392 34999 ft 448 kts 162°
2026-04-23 19:13 47.59819 -2.45435 35000 ft 448 kts 160°
2026-04-23 19:14 47.53984 -2.42409 34999 ft 448 kts 160°
2026-04-23 19:14 47.48099 -2.39347 34999 ft 448 kts 160°
2026-04-23 19:15 47.42231 -2.36290 35000 ft 448 kts 160°
2026-04-23 19:15 47.36365 -2.33237 34999 ft 448 kts 161°
2026-04-23 19:16 47.30515 -2.30196 34999 ft 448 kts 161°
2026-04-23 19:16 47.24646 -2.27151 35000 ft 448 kts 161°
2026-04-23 19:17 47.15859 -2.22603 34999 ft 448 kts 161°
2026-04-23 19:17 47.10005 -2.19583 34999 ft 448 kts 161°
2026-04-23 19:18 47.04140 -2.16563 34999 ft 448 kts 161°
2026-04-23 19:18 46.98280 -2.13553 34999 ft 448 kts 161°
2026-04-23 19:19 46.89508 -2.08980 34999 ft 448 kts 158°
2026-04-23 19:20 46.80912 -2.03679 35000 ft 448 kts 157°
2026-04-23 19:20 46.75193 -2.00101 34999 ft 448 kts 156°
2026-04-23 19:21 46.66638 -1.94749 34999 ft 448 kts 156°
2026-04-23 19:22 46.60947 -1.91193 35000 ft 448 kts 156°
2026-04-23 19:22 46.52390 -1.85842 34999 ft 448 kts 155°
2026-04-23 19:23 46.46890 -1.81602 35000 ft 448 kts 150°
2026-04-23 19:24 46.38778 -1.74864 35000 ft 448 kts 150°
2026-04-23 19:24 46.30718 -1.68124 35000 ft 448 kts 149°
2026-04-23 19:25 46.19970 -1.59131 35000 ft 448 kts 149°
2026-04-23 19:26 46.11886 -1.52382 35000 ft 448 kts 149°
2026-04-23 19:27 45.97551 -1.44078 35000 ft 448 kts 162°
2026-04-23 19:28 45.85576 -1.39086 34999 ft 448 kts 164°
2026-04-23 19:29 45.76630 -1.35545 34999 ft 448 kts 164°
2026-04-23 19:30 45.67627 -1.32035 35000 ft 448 kts 165°
2026-04-23 19:31 45.58629 -1.28556 34999 ft 448 kts 165°
2026-04-23 19:31 45.52606 -1.26238 35000 ft 448 kts 165°
2026-04-23 19:32 45.46630 -1.23946 35000 ft 448 kts 165°
2026-04-23 19:32 45.40615 -1.21644 35000 ft 448 kts 165°
2026-04-23 19:33 45.34607 -1.19351 35000 ft 448 kts 165°
2026-04-23 19:33 45.25595 -1.15922 34999 ft 448 kts 165°
2026-04-23 19:34 45.19603 -1.13647 35000 ft 448 kts 165°
2026-04-23 19:35 45.10633 -1.10252 35000 ft 448 kts 165°
2026-04-23 19:35 45.04589 -1.07971 34999 ft 448 kts 165°
2026-04-23 19:36 44.98621 -1.05724 35000 ft 448 kts 165°
2026-04-23 19:36 44.92601 -1.03461 34999 ft 448 kts 165°
2026-04-23 19:37 44.86599 -1.01211 35000 ft 448 kts 165°
2026-04-23 19:37 44.80559 -0.98951 35000 ft 448 kts 165°
2026-04-23 19:38 44.74585 -0.96720 35000 ft 448 kts 165°
2026-04-23 19:38 44.68569 -0.94479 35000 ft 448 kts 165°
2026-04-23 19:39 44.62578 -0.92252 35000 ft 448 kts 165°
2026-04-23 19:39 44.56551 -0.90016 35000 ft 448 kts 165°
2026-04-23 19:40 44.50549 -0.87795 35000 ft 448 kts 165°
2026-04-23 19:40 44.44523 -0.85569 35000 ft 448 kts 165°
2026-04-23 19:41 44.38617 -0.82927 35000 ft 448 kts 159°
2026-04-23 19:41 44.33841 -0.80176 35000 ft 448 kts 156°
2026-04-23 19:42 44.27186 -0.76163 35000 ft 448 kts 156°
2026-04-23 19:42 44.21466 -0.72696 35000 ft 448 kts 156°
2026-04-23 19:43 44.15797 -0.69256 35000 ft 448 kts 156°
2026-04-23 19:43 44.10099 -0.65799 35000 ft 448 kts 156°
2026-04-23 19:44 44.04401 -0.62346 35000 ft 448 kts 156°
2026-04-23 19:44 43.98690 -0.58890 35000 ft 448 kts 156°
2026-04-23 19:45 43.92974 -0.55438 35000 ft 448 kts 156°
2026-04-23 19:45 43.87286 -0.52009 34999 ft 448 kts 156°
2026-04-23 19:46 43.81583 -0.48578 34999 ft 448 kts 156°
2026-04-23 19:46 43.75865 -0.45145 34999 ft 448 kts 156°
2026-04-23 19:47 43.71141 -0.42314 34999 ft 448 kts 156°
2026-04-23 19:47 43.64483 -0.38332 34999 ft 448 kts 156°
2026-04-23 19:48 43.58757 -0.34916 34999 ft 448 kts 157°
2026-04-23 19:48 43.53043 -0.31514 35000 ft 448 kts 157°
2026-04-23 19:49 43.47369 -0.28143 35000 ft 448 kts 157°
2026-04-23 19:49 43.41641 -0.24746 35000 ft 448 kts 157°
2026-04-23 19:50 43.35922 -0.21362 34999 ft 448 kts 157°
2026-04-23 19:50 43.30228 -0.17999 34999 ft 448 kts 157°
2026-04-23 19:51 43.24504 -0.14626 35000 ft 448 kts 157°
2026-04-23 19:51 43.18803 -0.11274 35000 ft 448 kts 157°
2026-04-23 19:52 43.14019 -0.08465 34999 ft 448 kts 157°
2026-04-23 19:52 43.07381 -0.04578 35000 ft 448 kts 157°
2026-04-23 19:53 43.01641 -0.01222 35000 ft 448 kts 157°
2026-04-23 19:53 42.95957 0.02093 35000 ft 448 kts 157°
2026-04-23 19:54 42.90212 0.05437 34999 ft 448 kts 157°
2026-04-23 19:54 42.84489 0.08762 35000 ft 448 kts 157°
2026-04-23 19:55 42.78650 0.11508 35001 ft 448 kts 165°
2026-04-23 19:55 42.72597 0.13394 34999 ft 448 kts 171°
2026-04-23 19:56 42.66400 0.14360 35000 ft 448 kts 175°
2026-04-23 19:56 42.60195 0.14827 35000 ft 448 kts 178°
2026-04-23 19:57 42.54009 0.15081 35000 ft 448 kts 179°
2026-04-23 19:57 42.48814 0.15213 35000 ft 448 kts 179°
2026-04-23 19:58 42.41582 0.15341 34999 ft 448 kts 179°
2026-04-23 19:58 42.35377 0.15423 35000 ft 448 kts 179°
2026-04-23 19:59 42.29166 0.15494 35000 ft 448 kts 179°
2026-04-23 19:59 42.22942 0.15558 34999 ft 448 kts 179°
2026-04-23 20:00 42.16707 0.15618 35000 ft 448 kts 179°
2026-04-23 20:00 42.10500 0.15676 35000 ft 448 kts 179°
2026-04-23 20:01 42.04314 0.15732 35000 ft 448 kts 179°
2026-04-23 20:01 41.98080 0.15787 35000 ft 448 kts 179°
2026-04-23 20:02 41.91872 0.15842 35000 ft 448 kts 179°
2026-04-23 20:02 41.85680 0.15896 35000 ft 448 kts 179°
2026-04-23 20:03 41.79483 0.15950 34999 ft 448 kts 179°
2026-04-23 20:03 41.73246 0.16005 34999 ft 448 kts 179°
2026-04-23 20:03 41.70187 0.16031 34775 ft 444 kts 179°
2026-04-23 20:04 41.67108 0.16058 34032 ft 444 kts 179°
2026-04-23 20:04 41.64015 0.16085 33260 ft 443 kts 179°
2026-04-23 20:04 41.60990 0.16111 32564 ft 441 kts 179°
2026-04-23 20:04 41.57937 0.16138 31851 ft 440 kts 179°
2026-04-23 20:05 41.55917 0.16155 31369 ft 438 kts 179°
2026-04-23 20:05 41.51873 0.16190 30466 ft 434 kts 179°
2026-04-23 20:05 41.48895 0.16216 29960 ft 427 kts 179°
2026-04-23 20:05 41.45950 0.16242 29412 ft 422 kts 179°
2026-04-23 20:06 41.43018 0.16267 28868 ft 424 kts 179°
2026-04-23 20:06 41.40080 0.16292 28308 ft 423 kts 179°
2026-04-23 20:06 41.37170 0.16317 27747 ft 418 kts 179°
2026-04-23 20:06 41.34315 0.16342 27201 ft 413 kts 179°
2026-04-23 20:07 41.31449 0.16367 26653 ft 407 kts 179°
2026-04-23 20:07 41.28661 0.16391 26117 ft 403 kts 179°
2026-04-23 20:07 41.25916 0.16414 25588 ft 398 kts 179°
2026-04-23 20:07 41.23134 0.16438 25055 ft 398 kts 179°
2026-04-23 20:08 41.20361 0.16462 24518 ft 399 kts 179°
2026-04-23 20:08 41.17636 0.16372 24002 ft 393 kts 184°
2026-04-23 20:08 41.14950 0.16014 23504 ft 388 kts 188°
2026-04-23 20:08 41.12306 0.15423 22978 ft 383 kts 191°
2026-04-23 20:09 41.09738 0.14682 22451 ft 379 kts 193°
2026-04-23 20:09 41.07186 0.13841 21922 ft 376 kts 194°
2026-04-23 20:09 41.04678 0.12949 21390 ft 380 kts 195°
2026-04-23 20:09 41.02155 0.12006 20811 ft 378 kts 196°
2026-04-23 20:10 41.00477 0.11364 20454 ft 375 kts 196°
2026-04-23 20:10 40.97192 0.10085 19765 ft 369 kts 196°
2026-04-23 20:10 40.94745 0.09122 19247 ft 365 kts 197°
2026-04-23 20:10 40.92354 0.08175 18743 ft 361 kts 197°
2026-04-23 20:11 40.89984 0.07236 18241 ft 357 kts 197°
2026-04-23 20:11 40.87604 0.06289 17736 ft 353 kts 197°
2026-04-23 20:11 40.85284 0.05364 17240 ft 350 kts 197°
2026-04-23 20:11 40.82937 0.04428 16667 ft 353 kts 197°
2026-04-23 20:12 40.80596 0.03493 16072 ft 353 kts 197°
2026-04-23 20:12 40.78294 0.02573 15570 ft 349 kts 197°
2026-04-23 20:12 40.75973 0.01645 15067 ft 345 kts 197°
2026-04-23 20:12 40.73697 0.00735 14575 ft 341 kts 197°
2026-04-23 20:13 40.71458 -0.00160 14089 ft 338 kts 197°
2026-04-23 20:13 40.69225 -0.01052 13605 ft 334 kts 197°
2026-04-23 20:13 40.67025 -0.01930 13124 ft 331 kts 197°
2026-04-23 20:13 40.64845 -0.02799 12647 ft 328 kts 197°
2026-04-23 20:14 40.62671 -0.03666 12170 ft 325 kts 197°
2026-04-23 20:14 40.60537 -0.04515 11702 ft 322 kts 197°
2026-04-23 20:14 40.58392 -0.05369 11241 ft 326 kts 197°
2026-04-23 20:14 40.56233 -0.06228 10751 ft 324 kts 197°
2026-04-23 20:15 40.54081 -0.07082 10316 ft 319 kts 197°
2026-04-23 20:15 40.52004 -0.07904 10163 ft 305 kts 197°
2026-04-23 20:15 40.50046 -0.08679 10079 ft 291 kts 197°
2026-04-23 20:15 40.48134 -0.09437 10005 ft 278 kts 197°
2026-04-23 20:16 40.46327 -0.10153 9828 ft 270 kts 197°
2026-04-23 20:16 40.44535 -0.10863 9410 ft 272 kts 197°
2026-04-23 20:16 40.42717 -0.11583 9061 ft 271 kts 197°
2026-04-23 20:16 40.40924 -0.12293 8722 ft 270 kts 197°
2026-04-23 20:17 40.39142 -0.12998 8390 ft 268 kts 197°
2026-04-23 20:17 40.37364 -0.13700 8070 ft 267 kts 197°
2026-04-23 20:17 40.35582 -0.14405 8004 ft 266 kts 197°
2026-04-23 20:17 40.33809 -0.15105 8002 ft 270 kts 197°
2026-04-23 20:18 40.32027 -0.15808 7997 ft 270 kts 197°
2026-04-23 20:18 40.30222 -0.16520 7995 ft 267 kts 197°
2026-04-23 20:18 40.28507 -0.17197 7987 ft 252 kts 197°
2026-04-23 20:18 40.26869 -0.17750 7886 ft 237 kts 189°
2026-04-23 20:19 40.25219 -0.17918 7234 ft 244 kts 178°
2026-04-23 20:19 40.23521 -0.17617 6422 ft 254 kts 166°
2026-04-23 20:19 40.21804 -0.17011 5620 ft 260 kts 164°
2026-04-23 20:19 40.20066 -0.16358 4931 ft 260 kts 164°
2026-04-23 20:20 40.18375 -0.15731 4453 ft 251 kts 164°
2026-04-23 20:20 40.16747 -0.15137 4159 ft 237 kts 165°
2026-04-23 20:20 40.15207 -0.14579 3929 ft 223 kts 165°
2026-04-23 20:20 40.13741 -0.14050 3758 ft 214 kts 165°
2026-04-23 20:21 40.12331 -0.13541 3614 ft 206 kts 165°
2026-04-23 20:21 40.10999 -0.13063 3542 ft 191 kts 165°
2026-04-23 20:21 40.09891 -0.12229 3439 ft 184 kts 126°
2026-04-23 20:21 40.09535 -0.10694 3458 ft 183 kts 83°
2026-04-23 20:22 40.10100 -0.09222 3478 ft 185 kts 39°
2026-04-23 20:22 40.11277 -0.08652 3486 ft 185 kts 360°
2026-04-23 20:22 40.12566 -0.08720 3521 ft 185 kts
2026-04-23 20:22 40.13752 -0.08109 3368 ft 186 kts 41°
2026-04-23 20:23 40.14545 -0.06809 3318 ft 181 kts 59°
2026-04-23 20:23 40.15183 -0.05375 3207 ft 184 kts 59°
2026-04-23 20:23 40.15823 -0.03998 2987 ft 171 kts 58°
2026-04-23 20:23 40.16423 -0.02770 2747 ft 156 kts 57°
2026-04-23 20:24 40.17004 -0.01597 2566 ft 154 kts 57°
2026-04-23 20:24 40.17584 -0.00420 2364 ft 155 kts 57°
2026-04-23 20:24 40.18168 0.00764 2153 ft 155 kts 57°
2026-04-23 20:24 40.18744 0.01934 1942 ft 150 kts 57°
2026-04-23 20:25 40.19309 0.03082 1747 ft 152 kts 57°
2026-04-23 20:25 40.19882 0.04245 1540 ft 152 kts 57°
2026-04-23 20:25 40.20458 0.05397 1334 ft 150 kts 57°
2026-04-23 20:25 40.21019 0.06548 1195 ft 142 kts 57°
2026-04-23 20:26 40.21469 0.07467 1190 ft 91 kts 58°
2026-04-23 20:26 40.21716 0.07974 1190 ft 43 kts 57°
2026-04-23 20:26 40.21818 0.08180 1190 ft 20 kts 57°
2026-04-23 20:26 40.21894 0.08335 1190 ft 19 kts 57°
2026-04-23 20:27 40.21965 0.08480 1190 ft 18 kts 58°
2026-04-23 20:27 40.22022 0.08610 1190 ft 12 kts 75°
2026-04-23 20:27 40.22026 0.08703 1190 ft 9 kts 82°
2026-04-23 20:27 40.22060 0.08767 1190 ft 8 kts 12°
2026-04-23 20:28 40.22086 0.08707 1190 ft 11 kts 230°
2026-04-23 20:28 40.22027 0.08601 1190 ft 16 kts 237°
2026-04-23 20:28 40.21953 0.08453 1190 ft 22 kts 237°
2026-04-23 20:28 40.21858 0.08260 1190 ft 27 kts 237°
2026-04-23 20:29 40.21743 0.08028 1190 ft 32 kts 237°
2026-04-23 20:29 40.21630 0.07799 1190 ft 31 kts 237°
2026-04-23 20:29 40.21559 0.07652 1190 ft 30 kts 238°
2026-04-23 20:29 40.21449 0.07429 1190 ft 27 kts 237°
2026-04-23 20:30 40.21347 0.07225 1190 ft 25 kts 237°
2026-04-23 20:30 40.21178 0.06878 1190 ft 20 kts 237°
2026-04-23 20:30 40.21104 0.06728 1190 ft 19 kts 237°
2026-04-23 20:31 40.21033 0.06583 1190 ft 18 kts 237°
2026-04-23 20:31 40.20966 0.06444 1190 ft 17 kts 237°
2026-04-23 20:31 40.20901 0.06318 1190 ft 16 kts 236°
2026-04-23 20:31 40.20841 0.06200 1190 ft 14 kts 237°
2026-04-23 20:32 40.20784 0.06104 1190 ft 12 kts 219°
2026-04-23 20:32 40.20714 0.06075 1190 ft 9 kts 161°
2026-04-23 20:32 40.20661 0.06118 1190 ft 8 kts 147°
2026-04-23 20:32 40.20628 0.06163 1190 ft 7 kts 91°
2026-04-23 20:33 40.20654 0.06239 1190 ft 11 kts 51°
2026-04-23 20:33 40.20701 0.06333 1190 ft 11 kts 71°
2026-04-23 20:33 40.20675 0.06409 1190 ft 9 kts 147°
2026-04-23 20:33 40.20634 0.06452 1190 ft 5 kts 103°
2026-04-23 20:34 40.20638 0.06502 1190 ft 5 kts 64°
2026-04-23 20:34 40.20660 0.06547 1190 ft 7 kts 58°
2026-04-23 20:34 40.20653 0.06591 1190 ft 4 kts 135°
2026-04-23 20:34 40.20623 0.06614 1190 ft 4 kts 146°
2026-04-23 20:35 40.20612 0.06624 1190 ft 0 kts 146°